Hourly Data Report for February 26, 2004

TORONTO CITY
ONTARIO

43°40'00.000" N
79°24'00.000" W
112.50 m
6158355
71508
XTO

Download Data

Hourly Data (February 2004)
Hourly Data Report for February 26, 2004
TIME
LST
Temp Definition
°C
Dew Point Definition
°C
Rel Hum Definition
%
Precip. Amount Definition
mm

Wind Dir Definition
10's deg

Wind Spd Definition
km/h
Visibility Definition
km
Stn Press Definition
kPa
Hmdx Definition


Wind Chill Definition


Weather Definition


00:00 -0.8 -4.1 78   LegendMM LegendMM LegendMM 101.56     LegendNANA
01:00 -1.4 -4.2 81   LegendMM LegendMM LegendMM 101.61     LegendNANA
02:00 -1.9 -4.3 84   LegendMM LegendMM LegendMM 101.65     LegendNANA
03:00 -1.5 -4.3 81   LegendMM LegendMM LegendMM 101.66     LegendNANA
04:00 -1.7 -4.8 79   LegendMM LegendMM LegendMM 101.68     LegendNANA
05:00 -2.2 -5.3 79   LegendMM LegendMM LegendMM 101.72     LegendNANA
06:00 -2.7 -5.8 79   LegendMM LegendMM LegendMM 101.75     LegendNANA
07:00 -3.0 -6.5 77   LegendMM LegendMM LegendMM 101.78     LegendNANA
08:00 -2.7 -7.3 71   LegendMM LegendMM LegendMM 101.83     LegendNANA
09:00 -1.2 -7.6 62   LegendMM LegendMM LegendMM 101.88     LegendNANA
10:00 0.0 -6.7 61   LegendMM LegendMM LegendMM 101.84     LegendNANA
11:00 0.5 -5.8 63   LegendMM LegendMM LegendMM 101.86     LegendNANA
12:00 1.5 -5.5 60   LegendMM LegendMM LegendMM 101.81     LegendNANA
13:00 1.1 -4.8 65   LegendMM LegendMM LegendMM 101.85     LegendNANA
14:00 0.2 -5.1 67   LegendMM LegendMM LegendMM 101.84     LegendNANA
15:00 0.3 -4.4 71   LegendMM LegendMM LegendMM 101.78     LegendNANA
16:00 1.1 -5.9 60   LegendMM LegendMM LegendMM 101.73     LegendNANA
17:00 1.6 -6.6 54   LegendMM LegendMM LegendMM 101.72     LegendNANA
18:00 -0.3 -4.6 73   LegendMM LegendMM LegendMM 101.72     LegendNANA
19:00 -0.5 -4.6 74   LegendMM LegendMM LegendMM 101.74     LegendNANA
20:00 -0.6 -4.9 73   LegendMM LegendMM LegendMM 101.76     LegendNANA
21:00 -0.7 -5.5 70   LegendMM LegendMM LegendMM 101.76     LegendNANA
22:00 -0.8 -6.3 66   LegendMM LegendMM LegendMM 101.76     LegendNANA
23:00 -1.1 -6.0 69   LegendMM LegendMM LegendMM 101.74     LegendNANA

Notes on Data Quality.

Legend

  • E = Estimated
  • M = Missing
  • NA = Not Available*
  • [empty] = Indicates an unobserved value
Date modified: